,,PA_Meas_PMT16A,,PR_Meas_QMR101_102,,RH_Meas_QMH101,,SR_Meas_QMS101,,TA_Meas_QMH101,,GenWind,,GenWind,
time,status,PA,status,PR,status,RH,status,SR,status,TA,status,DirAvg,status,SpdAvg,
2013-11-02, 00:00:05,VALID,917.888,VALID,0,VALID,97.3815,VALID,0,VALID,19.5483,VALID,113,VALID,0,
2013-11-02, 00:01:05,VALID,917.885,VALID,0,VALID,97.3663,VALID,0,VALID,19.5093,VALID,113,VALID,0,
2013-11-02, 00:02:05,VALID,917.89,VALID,0,VALID,97.3891,VALID,0,VALID,19.4493,VALID,129,VALID,0,
2013-11-02, 00:03:05,VALID,917.887,VALID,0,VALID,97.4044,VALID,0,VALID,19.4688,VALID,142,VALID,0,
2013-11-02, 00:04:05,VALID,917.898,VALID,0,VALID,97.4044,VALID,0.107441,VALID,19.4688,VALID,144,VALID,0,
2013-11-02, 00:05:05,VALID,917.872,VALID,0,VALID,97.3815,VALID,0,VALID,19.4688,VALID,144,VALID,0,
2013-11-02, 00:06:05,VALID,917.86,VALID,0,VALID,97.3891,VALID,0,VALID,19.5093,VALID,144,VALID,0,
2013-11-02, 00:07:05,VALID,917.864,VALID,0,VALID,97.3968,VALID,0,VALID,19.4688,VALID,150,VALID,0,
2013-11-02, 00:08:05,VALID,917.859,VALID,0,VALID,97.3968,VALID,0,VALID,19.4688,VALID,150,VALID,0,
2013-11-02, 00:09:05,VALID,917.807,VALID,0,VALID,97.3891,VALID,0,VALID,19.4883,VALID,150,VALID,0,
2013-11-02, 00:10:05,VALID,917.782,VALID,0,VALID,97.3968,VALID,0,VALID,19.5078,VALID,150,VALID,0,
2013-11-02, 00:11:05,VALID,917.713,VALID,0,VALID,97.3968,VALID,0,VALID,19.4883,VALID,150,VALID,0,
2013-11-02, 00:12:05,VALID,917.698,VALID,0,VALID,97.4044,VALID,0,VALID,19.4688,VALID,150,VALID,0,
2013-11-02, 00:13:05,VALID,917.662,VALID,0,VALID,97.3968,VALID,0,VALID,19.4508,VALID,150,VALID,0,
2013-11-02, 00:14:05,VALID,917.648,VALID,0,VALID,97.4349,VALID,0.107441,VALID,19.3713,VALID,127,VALID,0,
2013-11-02, 00:15:05,VALID,917.61,VALID,0,VALID,97.4349,VALID,0,VALID,19.3128,VALID,127,VALID,0,
2013-11-02, 00:16:05,VALID,917.627,VALID,0,VALID,97.412,VALID,0,VALID,19.2933,VALID,127,VALID,0,
2013-11-02, 00:17:05,VALID,917.582,VALID,0,VALID,97.4349,VALID,0,VALID,19.2543,VALID,127,VALID,0,
2013-11-02, 00:18:05,VALID,917.578,VALID,0,VALID,97.4425,VALID,0,VALID,19.2363,VALID,127,VALID,0,
2013-11-02, 00:19:05,VALID,917.598,VALID,0,VALID,97.4425,VALID,0,VALID,19.1958,VALID,107,VALID,0,
2013-11-02, 00:20:05,VALID,917.586,VALID,0,VALID,97.4425,VALID,0,VALID,19.1763,VALID,107,VALID,0,
2013-11-02, 00:21:05,VALID,917.613,VALID,0,VALID,97.4425,VALID,0,VALID,19.1763,VALID,107,VALID,0,
2013-11-02, 00:22:05,VALID,917.634,VALID,0,VALID,97.4349,VALID,0,VALID,19.1973,VALID,112,VALID,0,
2013-11-02, 00:23:05,VALID,917.624,VALID,0,VALID,97.4273,VALID,0,VALID,19.1958,VALID,105,VALID,0,
2013-11-02, 00:24:05,VALID,917.624,VALID,0,VALID,97.4273,VALID,0,VALID,19.2543,VALID,103,VALID,0,
2013-11-02, 00:25:05,VALID,917.626,VALID,0,VALID,97.4273,VALID,0,VALID,19.2753,VALID,94,VALID,0,
2013-11-02, 00:26:05,VALID,917.613,VALID,0,VALID,97.4196,VALID,0,VALID,19.2933,VALID,94,VALID,0,
2013-11-02, 00:27:05,VALID,917.63,VALID,0,VALID,97.4196,VALID,0,VALID,19.2933,VALID,94,VALID,0,
2013-11-02, 00:28:05,VALID,917.621,VALID,0,VALID,97.4044,VALID,0,VALID,19.3338,VALID,94,VALID,0,
2013-11-02, 00:29:05,VALID,917.583,VALID,0,VALID,97.4196,VALID,0,VALID,19.3128,VALID,94,VALID,0,
2013-11-02, 00:30:05,VALID,917.604,VALID,0,VALID,97.4273,VALID,0,VALID,19.3128,VALID,94,VALID,0,
2013-11-02, 00:31:05,VALID,917.556,VALID,0,VALID,97.4273,VALID,0,VALID,19.2933,VALID,94,VALID,0,
2013-11-02, 00:32:05,VALID,917.558,VALID,0,VALID,97.4273,VALID,0,VALID,19.2933,VALID,94,VALID,0,
2013-11-02, 00:33:05,VALID,917.607,VALID,0,VALID,97.4349,VALID,0,VALID,19.2933,VALID,94,VALID,0,
2013-11-02, 00:34:05,VALID,917.556,VALID,0,VALID,97.4425,VALID,0,VALID,19.2933,VALID,94,VALID,0,
2013-11-02, 00:35:05,VALID,917.559,VALID,0,VALID,97.4349,VALID,0,VALID,19.2948,VALID,94,VALID,0,
2013-11-02, 00:36:05,VALID,917.533,VALID,0,VALID,97.4196,VALID,0,VALID,19.2543,VALID,94,VALID,0,
2013-11-02, 00:37:05,VALID,917.523,VALID,0,VALID,97.4349,VALID,0,VALID,19.1583,VALID,94,VALID,0,
2013-11-02, 00:38:05,VALID,917.556,VALID,0,VALID,97.4577,VALID,0,VALID,19.1178,VALID,94,VALID,0,
2013-11-02, 00:39:05,VALID,917.508,VALID,0,VALID,97.4577,VALID,0,VALID,19.0983,VALID,94,VALID,0,
2013-11-02, 00:40:05,VALID,917.526,VALID,0,VALID,97.4577,VALID,0,VALID,19.1178,VALID,94,VALID,0,
2013-11-02, 00:41:05,VALID,917.521,VALID,0,VALID,97.473,VALID,0,VALID,19.1583,VALID,94,VALID,0,
2013-11-02, 00:42:05,VALID,917.519,VALID,0,VALID,97.4501,VALID,0,VALID,19.1973,VALID,94,VALID,0,
2013-11-02, 00:43:05,VALID,917.474,VALID,0,VALID,97.4501,VALID,0,VALID,19.2168,VALID,94,VALID,0,
2013-11-02, 00:44:05,VALID,917.494,VALID,0,VALID,97.4577,VALID,0,VALID,19.0998,VALID,94,VALID,0,
2013-11-02, 00:45:05,VALID,917.505,VALID,0,VALID,97.473,VALID,0,VALID,18.9814,VALID,94,VALID,0,
2013-11-02, 00:46:05,VALID,917.486,VALID,0,VALID,97.473,VALID,0,VALID,19.0413,VALID,94,VALID,0,
2013-11-02, 00:47:05,VALID,917.501,VALID,0,VALID,97.473,VALID,0,VALID,19.0803,VALID,94,VALID,0,
2013-11-02, 00:48:05,VALID,917.47,VALID,0,VALID,97.4654,VALID,0,VALID,19.0983,VALID,94,VALID,0,
2013-11-02, 00:49:05,VALID,917.449,VALID,0,VALID,97.4654,VALID,0,VALID,19.1583,VALID,94,VALID,0,
2013-11-02, 00:50:05,VALID,917.44,VALID,0,VALID,97.4349,VALID,0,VALID,19.1373,VALID,94,VALID,0,
2013-11-02, 00:51:05,VALID,917.41,VALID,0,VALID,97.4654,VALID,0,VALID,19.0983,VALID,94,VALID,0,
2013-11-02, 00:52:05,VALID,917.427,VALID,0,VALID,97.473,VALID,0,VALID,19.0998,VALID,94,VALID,0,
2013-11-02, 00:53:05,VALID,917.375,VALID,0,VALID,97.473,VALID,0,VALID,19.0803,VALID,94,VALID,0,
2013-11-02, 00:54:05,VALID,917.364,VALID,0,VALID,97.473,VALID,0,VALID,19.1178,VALID,94,VALID,0,
2013-11-02, 00:55:05,VALID,917.365,VALID,0,VALID,97.4654,VALID,0,VALID,19.0998,VALID,94,VALID,0,
2013-11-02, 00:56:05,VALID,917.326,VALID,0,VALID,97.4501,VALID,0,VALID,19.1178,VALID,94,VALID,0,
2013-11-02, 00:57:05,VALID,917.295,VALID,0.2,VALID,97.4501,VALID,0,VALID,19.2153,VALID,94,VALID,0,
2013-11-02, 00:58:05,VALID,917.288,VALID,0,VALID,97.4501,VALID,0,VALID,19.2558,VALID,94,VALID,0,
2013-11-02, 00:59:05,VALID,917.278,VALID,0,VALID,97.4425,VALID,0,VALID,19.1973,VALID,94,VALID,0,
2013-11-02, 01:00:05,VALID,917.274,VALID,0,VALID,97.4654,VALID,0,VALID,19.0803,VALID,94,VALID,0,
2013-11-02, 01:01:05,VALID,917.259,VALID,0,VALID,97.4806,VALID,0,VALID,19.0203,VALID,94,VALID,0,
2013-11-02, 01:02:05,VALID,917.275,VALID,0,VALID,97.473,VALID,0,VALID,19.0803,VALID,94,VALID,0,
2013-11-02, 01:03:05,VALID,917.258,VALID,0,VALID,97.4806,VALID,0,VALID,19.1193,VALID,94,VALID,0,
2013-11-02, 01:04:05,VALID,917.234,VALID,0,VALID,97.473,VALID,0,VALID,19.1388,VALID,94,VALID,0,
2013-11-02, 01:05:05,VALID,917.224,VALID,0,VALID,97.473,VALID,0,VALID,19.1583,VALID,94,VALID,0,
2013-11-02, 01:06:05,VALID,917.193,VALID,0,VALID,97.4577,VALID,0,VALID,19.1778,VALID,94,VALID,0,
2013-11-02, 01:07:05,VALID,917.186,VALID,0,VALID,97.4425,VALID,0,VALID,19.1568,VALID,94,VALID,0,
2013-11-02, 01:08:05,VALID,917.19,VALID,0,VALID,97.4501,VALID,0,VALID,19.1778,VALID,94,VALID,0,
2013-11-02, 01:09:05,VALID,917.176,VALID,0,VALID,97.4425,VALID,0,VALID,19.1778,VALID,94,VALID,0,
2013-11-02, 01:10:05,VALID,917.157,VALID,0,VALID,97.4654,VALID,0,VALID,19.1973,VALID,94,VALID,0,
2013-11-02, 01:11:05,VALID,917.142,VALID,0,VALID,97.4425,VALID,0,VALID,19.1583,VALID,94,VALID,0,
2013-11-02, 01:12:05,VALID,917.128,VALID,0,VALID,97.4806,VALID,0,VALID,19.0608,VALID,94,VALID,0,
2013-11-02, 01:13:05,VALID,917.076,VALID,0,VALID,97.4654,VALID,0,VALID,19.0998,VALID,94,VALID,0,
2013-11-02, 01:14:05,VALID,917.085,VALID,0,VALID,97.473,VALID,0,VALID,19.0983,VALID,94,VALID,0,
2013-11-02, 01:15:05,VALID,917.054,VALID,0,VALID,97.4806,VALID,0,VALID,19.0803,VALID,94,VALID,0,
2013-11-02, 01:16:05,VALID,917.044,VALID,0,VALID,97.4806,VALID,0,VALID,19.0608,VALID,94,VALID,0,
2013-11-02, 01:17:05,VALID,917.004,VALID,0,VALID,97.4882,VALID,0,VALID,18.9814,VALID,94,VALID,0,
2013-11-02, 01:18:05,VALID,916.978,VALID,0,VALID,97.5035,VALID,0,VALID,18.9828,VALID,94,VALID,0,
2013-11-02, 01:19:05,VALID,916.967,VALID,0,VALID,97.534,VALID,0,VALID,18.9438,VALID,116,VALID,0,
2013-11-02, 01:20:05,VALID,916.998,VALID,0,VALID,97.4882,VALID,0,VALID,18.8658,VALID,117,VALID,0,
2013-11-02, 01:21:05,VALID,916.974,VALID,0,VALID,97.5416,VALID,0,VALID,18.8268,VALID,117,VALID,0,
2013-11-02, 01:22:05,VALID,916.981,VALID,0,VALID,97.534,VALID,0,VALID,18.7683,VALID,117,VALID,0,
2013-11-02, 01:23:05,VALID,916.956,VALID,0,VALID,97.534,VALID,0,VALID,18.7488,VALID,117,VALID,0,
2013-11-02, 01:24:05,VALID,916.962,VALID,0,VALID,97.5111,VALID,0,VALID,18.8463,VALID,119,VALID,0,
2013-11-02, 01:25:05,VALID,916.946,VALID,0,VALID,97.4882,VALID,0,VALID,18.9438,VALID,127,VALID,0,
2013-11-02, 01:26:05,VALID,916.937,VALID,0,VALID,97.4654,VALID,0,VALID,19.0803,VALID,127,VALID,0,
2013-11-02, 01:27:05,VALID,916.941,VALID,0,VALID,97.4806,VALID,0,VALID,19.0203,VALID,128,VALID,0,
2013-11-02, 01:28:05,VALID,916.905,VALID,0,VALID,97.5111,VALID,0,VALID,19.0023,VALID,139,VALID,0,
2013-11-02, 01:29:05,VALID,916.91,VALID,0,VALID,97.5035,VALID,0,VALID,19.0023,VALID,139,VALID,0,
2013-11-02, 01:30:05,VALID,916.893,VALID,0,VALID,97.4806,VALID,0,VALID,18.9828,VALID,139,VALID,0,
2013-11-02, 01:31:05,VALID,916.878,VALID,0,VALID,97.5035,VALID,0,VALID,18.9243,VALID,139,VALID,0,
2013-11-02, 01:32:05,VALID,916.89,VALID,0,VALID,97.4959,VALID,0,VALID,18.9438,VALID,139,VALID,0,
2013-11-02, 01:33:05,VALID,916.832,VALID,0,VALID,97.4959,VALID,0,VALID,18.9438,VALID,139,VALID,0,
2013-11-02, 01:34:05,VALID,916.822,VALID,0,VALID,97.4959,VALID,0,VALID,18.9633,VALID,139,VALID,0,
2013-11-02, 01:35:05,VALID,916.794,VALID,0,VALID,97.5187,VALID,0,VALID,18.9438,VALID,129,VALID,0,
2013-11-02, 01:36:05,VALID,916.811,VALID,0,VALID,97.5111,VALID,0,VALID,18.9438,VALID,128,VALID,0,
2013-11-02, 01:37:05,VALID,916.755,VALID,0,VALID,97.5035,VALID,0,VALID,18.9034,VALID,117,VALID,0,
2013-11-02, 01:38:05,VALID,916.772,VALID,0,VALID,97.4806,VALID,0,VALID,18.9243,VALID,113,VALID,0,
2013-11-02, 01:39:05,VALID,916.738,VALID,0,VALID,97.5187,VALID,0,VALID,18.9048,VALID,113,VALID,0,
2013-11-02, 01:40:05,VALID,916.74,VALID,0,VALID,97.4959,VALID,0,VALID,18.8644,VALID,107,VALID,0,
2013-11-02, 01:41:05,VALID,916.71,VALID,0,VALID,97.5111,VALID,0,VALID,18.9048,VALID,118,VALID,0,
2013-11-02, 01:42:05,VALID,916.701,VALID,0,VALID,97.5187,VALID,0,VALID,18.8658,VALID,119,VALID,0,
2013-11-02, 01:43:05,VALID,916.72,VALID,0,VALID,97.5111,VALID,0,VALID,18.8853,VALID,124,VALID,0,
2013-11-02, 01:44:05,VALID,916.741,VALID,0,VALID,97.5035,VALID,0,VALID,18.8449,VALID,128,VALID,0,
2013-11-02, 01:45:05,VALID,916.721,VALID,0,VALID,97.5035,VALID,0,VALID,18.8658,VALID,127,VALID,0,
2013-11-02, 01:46:05,VALID,916.721,VALID,0,VALID,97.5187,VALID,0,VALID,18.8853,VALID,127,VALID,0,
2013-11-02, 01:47:05,VALID,916.679,VALID,0,VALID,97.5264,VALID,0,VALID,18.8853,VALID,127,VALID,0,
2013-11-02, 01:48:05,VALID,916.695,VALID,0,VALID,97.4959,VALID,0,VALID,18.9048,VALID,127,VALID,0,
2013-11-02, 01:49:05,VALID,916.622,VALID,0,VALID,97.4959,VALID,0,VALID,18.9438,VALID,127,VALID,0,
2013-11-02, 01:50:05,VALID,916.596,VALID,0,VALID,97.5035,VALID,0,VALID,18.9828,VALID,127,VALID,0,
2013-11-02, 01:51:05,VALID,916.614,VALID,0,VALID,97.4882,VALID,0,VALID,19.0218,VALID,127,VALID,0,
2013-11-02, 01:52:05,VALID,916.58,VALID,0,VALID,97.4882,VALID,0,VALID,19.0413,VALID,127,VALID,0,
2013-11-02, 01:53:05,VALID,916.585,VALID,0,VALID,97.4806,VALID,0,VALID,19.0817,VALID,127,VALID,0,
2013-11-02, 01:54:05,VALID,916.59,VALID,0,VALID,97.4882,VALID,0,VALID,19.0608,VALID,127,VALID,0,
2013-11-02, 01:55:05,VALID,916.562,VALID,0,VALID,97.4882,VALID,0,VALID,19.0803,VALID,127,VALID,0,
2013-11-02, 01:56:05,VALID,916.56,VALID,0,VALID,97.4959,VALID,0,VALID,19.0803,VALID,121,VALID,0,
2013-11-02, 01:57:05,VALID,916.538,VALID,0,VALID,97.4882,VALID,0,VALID,19.0593,VALID,121,VALID,0,
2013-11-02, 01:58:05,VALID,916.533,VALID,0,VALID,97.4959,VALID,0,VALID,19.0803,VALID,121,VALID,0,
2013-11-02, 01:59:05,VALID,916.526,VALID,0,VALID,97.4959,VALID,0,VALID,19.0788,VALID,121,VALID,0,
2013-11-02, 02:00:05,VALID,916.516,VALID,0,VALID,97.4806,VALID,0,VALID,19.0998,VALID,121,VALID,0,
2013-11-02, 02:01:05,VALID,916.502,VALID,0,VALID,97.4654,VALID,0,VALID,19.0983,VALID,121,VALID,0,
2013-11-02, 02:02:05,VALID,916.515,VALID,0,VALID,97.473,VALID,0,VALID,19.1193,VALID,121,VALID,0,
2013-11-02, 02:03:05,VALID,916.479,VALID,0,VALID,97.4959,VALID,0,VALID,19.1193,VALID,121,VALID,0,
2013-11-02, 02:04:05,VALID,916.487,VALID,0,VALID,97.4959,VALID,0,VALID,19.0998,VALID,121,VALID,0,
2013-11-02, 02:05:05,VALID,916.461,VALID,0,VALID,97.4959,VALID,0.107441,VALID,19.0803,VALID,122,VALID,0,
2013-11-02, 02:06:05,VALID,916.46,VALID,0,VALID,97.5035,VALID,0,VALID,19.0803,VALID,123,VALID,0,
2013-11-02, 02:07:05,VALID,916.443,VALID,0,VALID,97.5035,VALID,0,VALID,19.0608,VALID,123,VALID,0,
2013-11-02, 02:08:05,VALID,916.439,VALID,0,VALID,97.4959,VALID,0,VALID,19.0413,VALID,123,VALID,0,
2013-11-02, 02:09:05,VALID,916.419,VALID,0,VALID,97.5035,VALID,0,VALID,19.0023,VALID,123,VALID,0,
2013-11-02, 02:10:05,VALID,916.453,VALID,0,VALID,97.5035,VALID,0,VALID,18.9438,VALID,121,VALID,0,
2013-11-02, 02:11:05,VALID,916.408,VALID,0,VALID,97.5035,VALID,0,VALID,18.9229,VALID,113,VALID,0,
2013-11-02, 02:12:05,VALID,916.434,VALID,0,VALID,97.5187,VALID,0,VALID,19.0023,VALID,117,VALID,0,
2013-11-02, 02:13:05,VALID,916.406,VALID,0,VALID,97.4882,VALID,0,VALID,19.0023,VALID,118,VALID,0,
2013-11-02, 02:14:05,VALID,916.388,VALID,0,VALID,97.4959,VALID,0,VALID,18.9619,VALID,118,VALID,0,
2013-11-02, 02:15:05,VALID,916.368,VALID,0,VALID,97.5035,VALID,0,VALID,19.0023,VALID,118,VALID,0,
2013-11-02, 02:16:05,VALID,916.363,VALID,0,VALID,97.5111,VALID,0,VALID,19.0023,VALID,118,VALID,0,
2013-11-02, 02:17:05,VALID,916.336,VALID,0,VALID,97.5035,VALID,0,VALID,19.0023,VALID,118,VALID,0,
2013-11-02, 02:18:05,VALID,916.306,VALID,0,VALID,97.5035,VALID,0,VALID,19.0023,VALID,118,VALID,0,
2013-11-02, 02:19:05,VALID,916.305,VALID,0,VALID,97.4959,VALID,0,VALID,18.9633,VALID,118,VALID,0,
2013-11-02, 02:20:05,VALID,916.257,VALID,0,VALID,97.5111,VALID,0,VALID,18.9424,VALID,117,VALID,0,
2013-11-02, 02:21:05,VALID,916.25,VALID,0,VALID,97.534,VALID,0,VALID,18.9243,VALID,117,VALID,0,
2013-11-02, 02:22:05,VALID,916.26,VALID,0,VALID,97.534,VALID,0,VALID,18.9034,VALID,117,VALID,0,
2013-11-02, 02:23:05,VALID,916.212,VALID,0,VALID,97.5264,VALID,0,VALID,18.9229,VALID,117,VALID,0,
2013-11-02, 02:24:05,VALID,916.225,VALID,0,VALID,97.534,VALID,0,VALID,18.9438,VALID,118,VALID,0,
2013-11-02, 02:25:05,VALID,916.21,VALID,0,VALID,97.5111,VALID,0,VALID,18.9438,VALID,122,VALID,0,
2013-11-02, 02:26:05,VALID,916.218,VALID,0,VALID,97.5187,VALID,0,VALID,18.9243,VALID,125,VALID,0,
2013-11-02, 02:27:05,VALID,916.241,VALID,0,VALID,97.5187,VALID,0,VALID,18.9438,VALID,121,VALID,0,
2013-11-02, 02:28:05,VALID,916.233,VALID,0,VALID,97.4959,VALID,0,VALID,18.9633,VALID,120,VALID,0,
2013-11-02, 02:29:05,VALID,916.234,VALID,0,VALID,97.5035,VALID,0,VALID,18.9633,VALID,126,VALID,0,
2013-11-02, 02:30:05,VALID,916.222,VALID,0,VALID,97.5111,VALID,0,VALID,19.0023,VALID,111,VALID,0,
2013-11-02, 02:31:05,VALID,916.222,VALID,0,VALID,97.5035,VALID,0,VALID,19.0413,VALID,128,VALID,0,
2013-11-02, 02:32:04,VALID,916.188,VALID,0,VALID,97.4882,VALID,0,VALID,19.0803,VALID,127,VALID,0,
2013-11-02, 02:33:04,VALID,916.176,VALID,0,VALID,97.4882,VALID,0,VALID,19.0998,VALID,149,VALID,0,
2013-11-02, 02:34:04,VALID,916.162,VALID,0,VALID,97.4882,VALID,0,VALID,19.1583,VALID,141,VALID,0,
2013-11-02, 02:35:04,VALID,916.133,VALID,0,VALID,97.4882,VALID,0,VALID,19.1778,VALID,163,VALID,0,
2013-11-02, 02:36:04,VALID,916.103,VALID,0,VALID,97.4806,VALID,0,VALID,19.1973,VALID,146,VALID,0,
2013-11-02, 02:37:04,VALID,916.079,VALID,0,VALID,97.473,VALID,0,VALID,19.1973,VALID,163,VALID,0,
2013-11-02, 02:38:04,VALID,916.047,VALID,0,VALID,97.4882,VALID,0,VALID,19.1973,VALID,158,VALID,0,
2013-11-02, 02:39:04,VALID,916.067,VALID,0,VALID,97.4654,VALID,0,VALID,19.1778,VALID,135,VALID,0,
2013-11-02, 02:40:04,VALID,916.055,VALID,0,VALID,97.4654,VALID,0,VALID,19.1973,VALID,135,VALID,0,
2013-11-02, 02:41:04,VALID,916.022,VALID,0,VALID,97.4806,VALID,0,VALID,19.1973,VALID,125,VALID,0,
2013-11-02, 02:42:04,VALID,916.03,VALID,0,VALID,97.4654,VALID,0,VALID,19.1763,VALID,116,VALID,0,
2013-11-02, 02:43:04,VALID,916.027,VALID,0,VALID,97.4806,VALID,0,VALID,19.1763,VALID,117,VALID,0,
2013-11-02, 02:44:04,VALID,916.033,VALID,0,VALID,97.4882,VALID,0,VALID,19.1973,VALID,117,VALID,0,
2013-11-02, 02:45:04,VALID,916.025,VALID,0,VALID,97.4806,VALID,0,VALID,19.1778,VALID,117,VALID,0,
2013-11-02, 02:46:04,VALID,916.018,VALID,0,VALID,97.4882,VALID,0,VALID,19.1583,VALID,117,VALID,0,
2013-11-02, 02:47:04,VALID,915.997,VALID,0,VALID,97.5035,VALID,0,VALID,19.1388,VALID,114,VALID,0,
2013-11-02, 02:48:04,VALID,915.942,VALID,0,VALID,97.4806,VALID,0,VALID,19.1388,VALID,114,VALID,0,
2013-11-02, 02:49:04,VALID,915.954,VALID,0,VALID,97.4882,VALID,0,VALID,19.0998,VALID,114,VALID,0,
2013-11-02, 02:50:04,VALID,915.901,VALID,0,VALID,97.4577,VALID,0,VALID,19.0788,VALID,114,VALID,0,
2013-11-02, 02:51:04,VALID,915.869,VALID,0,VALID,97.5035,VALID,0,VALID,19.0803,VALID,114,VALID,0,
2013-11-02, 02:52:04,VALID,915.863,VALID,0,VALID,97.5111,VALID,0,VALID,19.0608,VALID,114,VALID,0,
2013-11-02, 02:53:04,VALID,915.836,VALID,0,VALID,97.5264,VALID,0,VALID,19.0218,VALID,114,VALID,0,
2013-11-02, 02:54:04,VALID,915.823,VALID,0,VALID,97.5187,VALID,0,VALID,19.0008,VALID,114,VALID,0,
2013-11-02, 02:55:04,VALID,915.777,VALID,0,VALID,97.5264,VALID,0,VALID,19.0023,VALID,114,VALID,0,
2013-11-02, 02:56:04,VALID,915.788,VALID,0,VALID,97.5187,VALID,0,VALID,18.9828,VALID,114,VALID,0,
2013-11-02, 02:57:04,VALID,915.781,VALID,0,VALID,97.534,VALID,0,VALID,19.0413,VALID,114,VALID,0,
2013-11-02, 02:58:04,VALID,915.752,VALID,0,VALID,97.5035,VALID,0,VALID,19.0023,VALID,114,VALID,0,
2013-11-02, 02:59:04,VALID,915.743,VALID,0,VALID,97.5187,VALID,0,VALID,19.0023,VALID,114,VALID,0,
2013-11-02, 03:00:04,VALID,915.725,VALID,0,VALID,97.5187,VALID,0,VALID,18.9828,VALID,114,VALID,0,
2013-11-02, 03:01:04,VALID,915.729,VALID,0,VALID,97.5187,VALID,0.107441,VALID,18.9438,VALID,114,VALID,0,
2013-11-02, 03:02:04,VALID,915.683,VALID,0,VALID,97.5035,VALID,0,VALID,18.9633,VALID,114,VALID,0,
2013-11-02, 03:03:04,VALID,915.674,VALID,0,VALID,97.5111,VALID,0,VALID,18.9828,VALID,114,VALID,0,
2013-11-02, 03:04:04,VALID,915.641,VALID,0,VALID,97.4959,VALID,0,VALID,18.9828,VALID,114,VALID,0,
2013-11-02, 03:05:04,VALID,915.618,VALID,0,VALID,97.5264,VALID,0.107441,VALID,18.9424,VALID,114,VALID,0,
2013-11-02, 03:06:04,VALID,915.609,VALID,0,VALID,97.5264,VALID,0,VALID,18.9828,VALID,123,VALID,0,
2013-11-02, 03:07:04,VALID,915.572,VALID,0,VALID,97.5035,VALID,0,VALID,19.0023,VALID,152,VALID,0,
2013-11-02, 03:08:04,VALID,915.528,VALID,0,VALID,97.5111,VALID,0,VALID,19.0218,VALID,156,VALID,0,
2013-11-02, 03:09:04,VALID,915.55,VALID,0,VALID,97.5111,VALID,0,VALID,19.0203,VALID,164,VALID,0,
2013-11-02, 03:10:04,VALID,915.533,VALID,0,VALID,97.5111,VALID,0,VALID,19.0218,VALID,164,VALID,0,
2013-11-02, 03:11:04,VALID,915.514,VALID,0,VALID,97.4959,VALID,0,VALID,19.0413,VALID,157,VALID,0,
2013-11-02, 03:12:04,VALID,915.523,VALID,0,VALID,97.5187,VALID,0,VALID,19.0608,VALID,158,VALID,0,
2013-11-02, 03:13:04,VALID,915.523,VALID,0,VALID,97.5111,VALID,0,VALID,19.0998,VALID,157,VALID,0,
2013-11-02, 03:14:04,VALID,915.52,VALID,0,VALID,97.5035,VALID,0,VALID,19.1193,VALID,155,VALID,0,
2013-11-02, 03:15:04,VALID,915.549,VALID,0,VALID,97.4959,VALID,0,VALID,19.0983,VALID,155,VALID,0,
2013-11-02, 03:16:04,VALID,915.538,VALID,0,VALID,97.5111,VALID,0,VALID,19.0788,VALID,149,VALID,0,
2013-11-02, 03:17:04,VALID,915.526,VALID,0,VALID,97.534,VALID,0,VALID,19.0803,VALID,149,VALID,0,
2013-11-02, 03:18:04,VALID,915.537,VALID,0,VALID,97.5111,VALID,0,VALID,19.0803,VALID,140,VALID,0,
2013-11-02, 03:19:04,VALID,915.5,VALID,0,VALID,97.5111,VALID,0,VALID,19.0998,VALID,139,VALID,0,
2013-11-02, 03:20:04,VALID,915.464,VALID,0,VALID,97.5111,VALID,0,VALID,19.0998,VALID,129,VALID,0,
2013-11-02, 03:21:04,VALID,915.469,VALID,0,VALID,97.4959,VALID,0,VALID,19.1207,VALID,128,VALID,0,
2013-11-02, 03:22:04,VALID,915.445,VALID,0,VALID,97.4959,VALID,0,VALID,19.0788,VALID,137,VALID,0,
2013-11-02, 03:23:04,VALID,915.4,VALID,0,VALID,97.5035,VALID,0,VALID,19.1193,VALID,137,VALID,0,
2013-11-02, 03:24:04,VALID,915.395,VALID,0,VALID,97.5035,VALID,0,VALID,19.0998,VALID,138,VALID,0,
2013-11-02, 03:25:04,VALID,915.424,VALID,0,VALID,97.4959,VALID,0,VALID,19.1193,VALID,150,VALID,0,
2013-11-02, 03:26:04,VALID,915.403,VALID,0,VALID,97.5035,VALID,0,VALID,19.1193,VALID,157,VALID,0,
2013-11-02, 03:27:04,VALID,915.408,VALID,0,VALID,97.5111,VALID,0,VALID,19.1388,VALID,164,VALID,0,
2013-11-02, 03:28:04,VALID,915.433,VALID,0,VALID,97.5035,VALID,0,VALID,19.1193,VALID,163,VALID,0,
2013-11-02, 03:29:04,VALID,915.414,VALID,0,VALID,97.4806,VALID,0,VALID,19.1388,VALID,165,VALID,0,
2013-11-02, 03:30:04,VALID,915.407,VALID,0,VALID,97.4959,VALID,0,VALID,19.1388,VALID,160,VALID,0,
2013-11-02, 03:31:04,VALID,915.433,VALID,0,VALID,97.4959,VALID,0,VALID,19.1388,VALID,156,VALID,0,
2013-11-02, 03:32:04,VALID,915.449,VALID,0,VALID,97.5187,VALID,0,VALID,19.1388,VALID,156,VALID,0,
2013-11-02, 03:33:04,VALID,915.437,VALID,0,VALID,97.4959,VALID,0,VALID,19.1193,VALID,156,VALID,0,
2013-11-02, 03:34:04,VALID,915.44,VALID,0,VALID,97.5035,VALID,0,VALID,19.1388,VALID,156,VALID,0,
2013-11-02, 03:35:04,VALID,915.451,VALID,0,VALID,97.5111,VALID,0,VALID,19.1193,VALID,156,VALID,0,
2013-11-02, 03:36:04,VALID,915.468,VALID,0,VALID,97.5035,VALID,0,VALID,19.0608,VALID,156,VALID,0,
2013-11-02, 03:37:04,VALID,915.505,VALID,0,VALID,97.5111,VALID,0,VALID,19.0218,VALID,141,VALID,0,
2013-11-02, 03:38:04,VALID,915.496,VALID,0,VALID,97.5264,VALID,0,VALID,18.9828,VALID,141,VALID,0,
2013-11-02, 03:39:04,VALID,915.494,VALID,0,VALID,97.5264,VALID,0,VALID,18.9828,VALID,141,VALID,0,
2013-11-02, 03:40:04,VALID,915.482,VALID,0,VALID,97.5187,VALID,0,VALID,18.9438,VALID,141,VALID,0,
2013-11-02, 03:41:04,VALID,915.409,VALID,0,VALID,97.534,VALID,0,VALID,18.9243,VALID,141,VALID,0,
2013-11-02, 03:42:04,VALID,915.446,VALID,0,VALID,97.534,VALID,0,VALID,18.9048,VALID,141,VALID,0,
2013-11-02, 03:43:04,VALID,915.41,VALID,0,VALID,97.5569,VALID,0,VALID,18.8853,VALID,141,VALID,0,
2013-11-02, 03:44:04,VALID,915.414,VALID,0,VALID,97.5416,VALID,0,VALID,18.8853,VALID,141,VALID,0,
2013-11-02, 03:45:04,VALID,915.402,VALID,0,VALID,97.5492,VALID,0,VALID,18.8658,VALID,141,VALID,0,
2013-11-02, 03:46:04,VALID,915.368,VALID,0,VALID,97.5569,VALID,0,VALID,18.8658,VALID,141,VALID,0,
2013-11-02, 03:47:04,VALID,915.396,VALID,0,VALID,97.534,VALID,0,VALID,18.8853,VALID,141,VALID,0,
2013-11-02, 03:48:04,VALID,915.4,VALID,0,VALID,97.5111,VALID,0,VALID,18.9633,VALID,141,VALID,0,
2013-11-02, 03:49:04,VALID,915.382,VALID,0,VALID,97.534,VALID,0,VALID,18.9828,VALID,141,VALID,0,
2013-11-02, 03:50:04,VALID,915.397,VALID,0,VALID,97.5264,VALID,0,VALID,18.8839,VALID,141,VALID,0,
2013-11-02, 03:51:04,VALID,915.434,VALID,0,VALID,97.5416,VALID,0,VALID,18.8463,VALID,138,VALID,0,
2013-11-02, 03:52:04,VALID,915.415,VALID,0,VALID,97.5569,VALID,0,VALID,18.8268,VALID,114,VALID,0,
2013-11-02, 03:53:04,VALID,915.408,VALID,0,VALID,97.5721,VALID,0,VALID,18.8073,VALID,114,VALID,0,
2013-11-02, 03:54:04,VALID,915.417,VALID,0,VALID,97.5645,VALID,0,VALID,18.8073,VALID,114,VALID,0,
2013-11-02, 03:55:04,VALID,915.424,VALID,0,VALID,97.5416,VALID,0,VALID,18.8073,VALID,114,VALID,0,
2013-11-02, 03:56:04,VALID,915.402,VALID,0,VALID,97.5797,VALID,0,VALID,18.8073,VALID,114,VALID,0,
2013-11-02, 03:57:04,VALID,915.406,VALID,0,VALID,97.5416,VALID,0,VALID,18.8073,VALID,114,VALID,0,
2013-11-02, 03:58:04,VALID,915.401,VALID,0,VALID,97.5492,VALID,0,VALID,18.8463,VALID,114,VALID,0,
2013-11-02, 03:59:04,VALID,915.4,VALID,0,VALID,97.5416,VALID,0,VALID,18.8658,VALID,114,VALID,0,
2013-11-02, 04:00:04,VALID,915.374,VALID,0,VALID,97.5569,VALID,0,VALID,18.8658,VALID,114,VALID,0,